OBJECT BE, 43810

Orbit data source: Space-Track

You're viewing an Uncataloged Satellite

Recently launched and/or uncataloged satellites may have evolving metadata. Metadata may include but not limited to: Owner, Maufacturer, Bus, Motor, and Mission.

OBJECT BE, 43810 is a satellite in SSO that was launched on Mon, 03 Dec 2018 UTC via an FALCON 9 launch vehicle from the Air Force Western Test Range (AFWTR). Unknown objects in Earth's orbit typically refer to objects detected orbiting the Earth but have not yet been identified or cataloged. These objects could be anything from previously untracked satellites, spent rocket stages, debris from satellite collisions, or even natural meteoroids temporarily captured by Earth's gravity.

Loading next visibility...
Identifier
43810, 2018-099BE
Orbit
SSO
Country
Flag of TBDTBD
Related business
None
Manufacturer
Unknown
Mission
Non-operational Commercial Technology
Bus & Motor
Unknown
Mass
Unknown
Launch date (UTC)
2018-12-03 (7 years ago)
Launch vehicle
FALCON 9
Launch site
Air Force Western Test Range (AFWTR)
Object type
Unknown
Shape & HBR
Box + 1 Pan, 0.1 m
Radar Cross Section
0.035 m², Small (<0.1 m²)

Expand to show TLE details & history
Last TLE update: 11 hours ago

TLE from 11 hours ago
0 OBJECT BE
1 43810U 18099BE  26034.56674509  .00004183  00000-0  26345-3 0  9999
2 43810  97.4088  78.8650 0009157  86.1757 274.0519 15.09660896391847
Epoch: 2026-02-03T13:36Z
TLE epoch observation values (Epoch: 2026-02-03T13:36:06.775Z)
Latitude
-0.00007°
Longitude
101.09095°
Altitude
539.87 km
Speed
7.593 km/s
True Right ascension
05h 15m 27s
True Declination
0° 00' 00"
Sunlit
Object was in full shadow at epoch
Visualization orbit readout
Latitude
Unknown
Longitude
Unknown
Altitude
Unknown
Speed
Unknown
Apparent Right ascension
Unknown
Apparent Declination
Unknown
Sunlit
N/A
Visualization observer readout
Local Sidereal Time
02:04:55
Azimuth
Unknown
Elevation
Unknown
Doppler factor
Unknown
Orbital elements
Apogee altitude
540.545 km
Perigee altitude
527.885 km
Semi-major axis
6,912.352 km
Eccentricity
0.00092
Inclination
97.4088°
RAAN
78.865°
Arg. of periapsis
86.1757°
True anomaly
273.94722°
Mean anomaly
274.0519°
Eccentric anomaly
273.99956°
Mean motion
3.77663 °/min
Orbital period
95.32 mins
BSTAR
0.00026345
Loading maneuver chart data...
Computing Atmospheric mass density...
Loading historical data...
Loading historical data...
Loading historical data...
Loading historical data...
Loading historical data...
Loading historical data...
Loading historical data...

Documentation

Showing up to 5 results
|